Weather History for St. Cloud, MN

Change the Weather History Date:

Thursday, October 11, 2012

  Actual Average Record
Temperature  
Mean Temperature 38 °F 48 °F  
Max Temperature 48 °F 59 °F 82 °F (1930)
Min Temperature 28 °F 37 °F 16 °F (1987)
Degree Days  
Heating Degree Days 27 17  
Month to date heating degree days 223 169  
Since 1 July heating degree days 458 455  
Cooling Degree Days 0 0  
Month to date cooling degree days 0 0  
Year to date cooling degree days 739 463  
Moisture  
Dew Point 25 °F    
Average Humidity 54    
Maximum Humidity 82    
Minimum Humidity 26    
Precipitation  
Precipitation T in 0.08 in 1.01 in (1973)
Month to date precipitation T 1.03  
Year to date precipitation 21.73 24.07  
Snow  
Snow 0.00 in 0.00 in T in (2006)
Month to date snowfall 0.0 0.1  
Since 1 July snowfall 0.0 0.1  
Since 1 September snowfall 0.0 0.1  
Snow Depth 0.00 in    
Sea Level Pressure  
Sea Level Pressure 30.14 in    
Wind  
Wind Speed 9 mph (NNW)    
Max Wind Speed 21 mph    
Max Gust Speed 26 mph    
Visibility 10 miles    
Events      
T = Trace of Precipitation, MM = Missing Value Source: NWS Daily Summary

Daily Weather History Graph

Daily Weather History Graph

Search for Another Location

Airport:

Trip Planner

Search our weather history database for the weather conditions in past years. The results will help you decide how hot, cold, wet, or windy it might be!

Date:

Astronomy

Oct. 11, 2012 Rise Set
Actual Time 7:27 AM CDT 6:36 PM CDT
Civil Twilight 6:58 AM CDT 7:06 PM CDT
Nautical Twilight 6:23 AM CDT 7:40 PM CDT
Astronomical Twilight 5:49 AM CDT 8:15 PM CDT
Moon 2:55 AM CDT (10/11) 4:23 PM CDT (10/11)
Length of Visible Light 12h 08m
Length of Day
11h 08m
Waning Crescent, 18% of the Moon is Illuminated
Oct 11
Waning Crescent
Oct 15
New
Oct 21
First Quarter
Oct 29
Full
Nov 6
Last Quarter

Hourly Weather History & Observations

Time (CDT) Temp. Windchill Dew Point Humidity Pressure Visibility Wind Dir Wind Speed Gust Speed Precip Events Conditions
12:53 AM 45.0 °F 41.8 °F 25.0 °F 46% 29.85 in 10.0 mi East 5.8 mph - N/A   Scattered Clouds
1:53 AM 45.0 °F 43.5 °F 26.1 °F 48% 29.86 in 10.0 mi NE 3.5 mph - N/A   Overcast
2:53 AM 44.1 °F 39.5 °F 26.1 °F 49% 29.90 in 10.0 mi North 8.1 mph - N/A   Mostly Cloudy
3:53 AM 41.0 °F 34.7 °F 33.1 °F 73% 29.94 in 10.0 mi North 10.4 mph 18.4 mph 0.00 in   Mostly Cloudy
4:31 AM 41.0 °F 35.8 °F 33.8 °F 76% 29.91 in 10.0 mi NNE 8.1 mph - N/A   Overcast
4:43 AM 41.0 °F 35.2 °F 33.8 °F 76% 29.93 in 10.0 mi North 9.2 mph 16.1 mph N/A   Overcast
4:53 AM 39.9 °F 33.4 °F 34.0 °F 79% 29.99 in 10.0 mi North 10.4 mph - N/A   Mostly Cloudy
5:01 AM 41.0 °F 35.8 °F 33.8 °F 76% 29.94 in 10.0 mi North 8.1 mph - N/A   Mostly Cloudy
5:51 AM 39.2 °F 32.5 °F 33.8 °F 81% 29.97 in 10.0 mi North 10.4 mph 20.7 mph N/A   Overcast
5:53 AM 39.9 °F 33.9 °F 33.1 °F 77% 30.02 in 10.0 mi North 9.2 mph 20.7 mph N/A   Overcast
6:26 AM 39.2 °F 31.6 °F 33.8 °F 81% 29.99 in 10.0 mi North 12.7 mph - N/A   Mostly Cloudy
6:53 AM 39.0 °F 34.0 °F 32.0 °F 76% 30.06 in 10.0 mi North 6.9 mph - N/A   Partly Cloudy
7:53 AM 37.9 °F 33.5 °F 32.0 °F 79% 30.11 in 10.0 mi NNW 5.8 mph - N/A   Partly Cloudy
8:53 AM 41.0 °F 35.8 °F 33.1 °F 73% 30.14 in 10.0 mi NNW 8.1 mph - N/A   Scattered Clouds
9:04 AM 39.2 °F 30.8 °F 32.0 °F 75% 30.11 in 10.0 mi NNW 15.0 mph 20.7 mph N/A   Mostly Cloudy
9:32 AM 41.0 °F 34.3 °F 30.2 °F 65% 30.13 in 10.0 mi NNW 11.5 mph - N/A   Scattered Clouds
9:53 AM 41.0 °F 34.7 °F 28.9 °F 62% 30.19 in 10.0 mi North 10.4 mph - N/A   Partly Cloudy
10:53 AM 43.0 °F 35.4 °F 23.0 °F 45% 30.21 in 10.0 mi NNW 16.1 mph 24.2 mph N/A   Clear
11:53 AM 44.1 °F 37.4 °F 19.9 °F 38% 30.23 in 10.0 mi NNW 13.8 mph 23.0 mph N/A   Clear
12:53 PM 45.0 °F 38.2 °F 19.0 °F 36% 30.24 in 10.0 mi NNW 15.0 mph 23.0 mph N/A   Clear
1:53 PM 48.0 °F - 16.0 °F 28% 30.24 in 10.0 mi NNW 16.1 mph 23.0 mph N/A   Clear
2:53 PM 46.0 °F 38.8 °F 15.1 °F 29% 30.26 in 10.0 mi NNW 18.4 mph 25.3 mph N/A   Clear
3:53 PM 45.0 °F 39.3 °F 17.1 °F 33% 30.28 in 10.0 mi NNW 11.5 mph 20.7 mph N/A   Clear
4:53 PM 46.4 °F 41.5 °F 17.6 °F 32% 30.24 in 10.0 mi NNW 10.4 mph 18.4 mph N/A   Clear
5:53 PM 45.0 °F 40.6 °F 18.0 °F 34% 30.31 in 10.0 mi NW 8.1 mph - N/A   Clear
6:53 PM 39.9 °F 35.8 °F 16.0 °F 38% 30.33 in 10.0 mi NNW 5.8 mph - N/A   Clear
7:53 PM 36.0 °F 30.3 °F 17.1 °F 46% 30.36 in 10.0 mi NW 6.9 mph - N/A   Clear
8:53 PM 34.0 °F 29.8 °F 17.1 °F 50% 30.38 in 10.0 mi NW 4.6 mph - N/A   Clear
9:53 PM 32.0 °F 27.5 °F 17.1 °F 54% 30.41 in 10.0 mi WNW 4.6 mph - N/A   Clear
10:53 PM 30.9 °F 27.5 °F 18.0 °F 59% 30.43 in 10.0 mi WNW 3.5 mph - N/A   Clear
11:53 PM 28.9 °F 23.9 °F 18.0 °F 64% 30.45 in 10.0 mi NNW 4.6 mph - N/A   Clear